DW5678 Kavala GR current weather conditions

sailwx.info

Wind from 009

Air temperature 11.1° C
Dewpoint 7.6° C

Last reported at 2014-Oct-26 00:45 UTC.
Time now 2014-Oct-26 01:58 UTC

Location: N 40°56' E 024°24'.
View on Google Maps.

See reports from other nearby stations

  
Tides and Currents Weather Stations Pressure Air Temp Water Temp Dewpoint Dewpoint Depression Visibility Wind Speed Wind Dir Waves Ship Positions
date/time (UTC)wind fromknots sea level pressurealtimeterstation pressurevisibilityair tempwater tempwave heightnotes
2014-Oct-26 00:45 009 11.1
2014-Oct-26 00:30 009 0 gusting 2 11.1
2014-Oct-26 00:15 355 0 gusting 4 11.1
2014-Oct-26 00:00 337 1 gusting 6 11.1
2014-Oct-25 23:45 355 11.1
2014-Oct-25 23:15 333 11.1
2014-Oct-25 23:00 343 11.1
2014-Oct-25 22:45 346 11.1
2014-Oct-25 22:30 280 11.1
2014-Oct-25 22:15 294 0 gusting 2 11.1
2014-Oct-25 22:00 304 11.1
2014-Oct-25 21:45 346 11.1
2014-Oct-25 21:30 346 11.7
2014-Oct-25 21:15 346 11.7
2014-Oct-25 21:00 346 11.7
2014-Oct-25 20:45 349 0 gusting 4 11.7
2014-Oct-25 20:30 002 0 gusting 5 11.1
2014-Oct-25 20:15 009 0 gusting 5 11.1
2014-Oct-25 20:00 356 1 gusting 4 11.1
2014-Oct-25 19:45 327 0 gusting 2 11.1
2014-Oct-25 19:30 340 11.1
2014-Oct-25 19:15 357 0 gusting 2 11.1
2014-Oct-25 19:00 277 11.1
2014-Oct-25 18:45 269 1 gusting 5 11.1
2014-Oct-25 18:30 309 10.6
2014-Oct-25 18:15 309 10.6
2014-Oct-25 18:00 309 10.6
2014-Oct-25 17:45 309 10.6
2014-Oct-25 17:30 309 10.6
2014-Oct-25 17:15 309 10.6
2014-Oct-25 17:00 309 10.6
2014-Oct-25 16:45 309 10.6
2014-Oct-25 16:30 309 10.6
2014-Oct-25 16:15 309 10.6
2014-Oct-25 16:00 309 10.6
2014-Oct-25 15:45 309 11.1
2014-Oct-25 15:30 309 11.1
2014-Oct-25 15:15 309 11.1
2014-Oct-25 15:00 309 11.1
2014-Oct-25 14:45 290 0 gusting 5 11.1
2014-Oct-25 14:30 346 0 gusting 4 11.1
2014-Oct-25 14:15 021 11.1
2014-Oct-25 14:00 071 11.1
2014-Oct-25 13:45 301 11.1
2014-Oct-25 13:30 021 11.1
2014-Oct-25 13:15 349 11.1
2014-Oct-25 12:15 010 0 gusting 1 11.7
2014-Oct-25 12:00 053 11.7
2014-Oct-25 11:45 334 0 gusting 7 11.7
2014-Oct-25 11:30 324 1 gusting 6 11.7
2014-Oct-25 11:15 036 1 gusting 6 11.7
2014-Oct-25 11:00 001 3 gusting 10 11.7
2014-Oct-25 10:45 308 4 gusting 10 11.7
2014-Oct-25 10:30 171 2 gusting 6 12.2
2014-Oct-25 10:15 352 2 gusting 13 12.8
2014-Oct-25 10:00 050 3 gusting 12 12.8
2014-Oct-25 09:45 355 2 gusting 12 12.2
2014-Oct-25 09:30 314 4 gusting 11 11.1
2014-Oct-25 09:15 350 4 gusting 12 11.7
2014-Oct-25 09:00 315 4 gusting 12 12.2
2014-Oct-25 08:45 015 4 gusting 22 12.2
2014-Oct-25 08:30 311 4 gusting 13 11.7
2014-Oct-25 08:15 028 5 gusting 13 11.7
2014-Oct-25 08:00 008 6 gusting 15 11.7
2014-Oct-25 07:45 081 6 gusting 22 12.8
2014-Oct-25 07:30 050 8 gusting 19 12.2
2014-Oct-25 07:15 024 6 gusting 19 12.2
2014-Oct-25 07:00 019 6 gusting 19 12.2
2014-Oct-25 06:45 057 6 gusting 25 12.2
2014-Oct-25 06:30 333 10 gusting 20 12.2
2014-Oct-25 06:15 021 7 gusting 13 12.2
2014-Oct-25 06:00 059 5 gusting 14 12.2
2014-Oct-25 05:45 021 6 gusting 14 11.7
2014-Oct-25 05:30 187 4 gusting 17 12.2
2014-Oct-25 05:15 020 3 gusting 17 12.2
2014-Oct-25 05:00 014 6 gusting 18 12.2
2014-Oct-25 04:45 033 5 gusting 17 12.8
2014-Oct-25 04:30 029 6 gusting 18 13.3
2014-Oct-25 04:15 355 2 gusting 14 13.3
2014-Oct-25 04:00 015 5 gusting 13 13.3
2014-Oct-25 03:45 017 5 gusting 13 13.3
2014-Oct-25 03:30 321 0 gusting 10 13.3
2014-Oct-25 03:15 014 5 gusting 10 13.3
2014-Oct-25 03:00 255 2 gusting 11 12.8
2014-Oct-25 02:45 007 2 gusting 14 13.3
2014-Oct-25 02:30 304 3 gusting 11 13.3
2014-Oct-25 02:15 046 5 gusting 13 12.8
2014-Oct-25 02:00 007 2 gusting 17 13.3
2014-Oct-25 01:45 017 6 gusting 20 12.8
2014-Oct-25 01:30 055 8 gusting 17 12.2
2014-Oct-25 01:15 020 6 gusting 15 12.2
2014-Oct-25 01:00 307 5 gusting 13 11.7
2014-Oct-25 00:45 042 6 gusting 17 11.1
2014-Oct-25 00:30 026 7 gusting 18 10.6
2014-Oct-25 00:15 073 6 gusting 11 10.6
2014-Oct-25 00:00 051 7 gusting 14 10.0
2014-Oct-24 23:45 077 7 gusting 15 10.0
2014-Oct-24 23:30 066 6 gusting 11 11.1
2014-Oct-24 23:15 103 2 gusting 12 10.6
2014-Oct-24 23:00 081 4 gusting 18 10.6
2014-Oct-24 22:45 117 7 gusting 27 13.9
2014-Oct-24 22:30 040 10 gusting 26 14.4
2014-Oct-24 22:15 077 8 gusting 25 15.0
2014-Oct-24 22:00 091 7 gusting 22 14.4
2014-Oct-24 21:45 046 9 gusting 21 14.4
2014-Oct-24 21:30 081 8 gusting 24 14.4
2014-Oct-24 21:15 060 10 gusting 20 14.4
2014-Oct-24 21:00 086 10 gusting 25 14.4
2014-Oct-24 20:45 075 8 gusting 20 14.4
2014-Oct-24 20:30 059 8 gusting 21 14.4
2014-Oct-24 20:15 038 12 gusting 24 15.6
2014-Oct-24 20:00 166 15 gusting 37 15.0
2014-Oct-24 19:45 014 13 gusting 30 15.0
2014-Oct-24 19:30 049 13 gusting 30 15.6
2014-Oct-24 19:15 060 13 gusting 27 16.1
2014-Oct-24 19:00 058 12 gusting 27 15.0
2014-Oct-24 18:45 056 10 gusting 22 14.4
2014-Oct-24 18:30 051 10 gusting 22 13.9
2014-Oct-24 18:15 034 8 gusting 21 13.3
2014-Oct-24 18:00 088 8 gusting 19 13.3
2014-Oct-24 17:45 014 6 gusting 19 13.3
2014-Oct-24 17:30 008 5 gusting 17 13.3
2014-Oct-24 17:15 056 6 gusting 14 13.9
2014-Oct-24 17:00 349 7 gusting 17 13.9
2014-Oct-24 16:45 059 7 gusting 15 13.9
2014-Oct-24 16:30 051 8 gusting 13 14.4
2014-Oct-24 16:15 087 6 gusting 13 15.0
2014-Oct-24 16:00 075 6 gusting 14 15.6
2014-Oct-24 15:45 025 6 gusting 18 16.1
2014-Oct-24 15:30 080 5 gusting 17 15.6
2014-Oct-24 15:15 064 6 gusting 19 15.6
2014-Oct-24 15:00 086 6 gusting 13 16.1
2014-Oct-24 14:45 057 4 gusting 13 16.1
2014-Oct-24 14:15 054 5 gusting 12 15.6
2014-Oct-24 14:00 097 4 gusting 12 16.1
2014-Oct-24 13:45 045 4 gusting 15 16.1
2014-Oct-24 13:30 039 2 gusting 13 16.7
2014-Oct-24 13:15 051 5 gusting 12 16.7
2014-Oct-24 13:00 069 3 gusting 12 16.7
2014-Oct-24 12:45 084 6 gusting 13 16.7
2014-Oct-24 12:30 067 3 gusting 11 16.7
2014-Oct-24 12:15 054 4 gusting 11 16.7
2014-Oct-24 12:00 042 4 gusting 13 16.7
2014-Oct-24 11:45 009 5 gusting 12 16.7
2014-Oct-24 11:30 092 2 gusting 12 17.2
2014-Oct-24 11:16 058 3 gusting 10 17.2
2014-Oct-24 10:46 051 1 gusting 8 17.2
2014-Oct-24 02:15 067 10.6
2014-Oct-24 02:00 242 11.1
2014-Oct-24 01:45 161 11.1
2014-Oct-24 01:30 155 0 gusting 5 11.7
2014-Oct-24 01:15 136 1 gusting 4 11.7
2014-Oct-24 01:00 149 11.7